Location: Alta
(39.2070°N, 120.8111°W)
Time: 11:30:48
(UTC+00:00)

NANOSAT C BR1 - Pass Details

Date: 05 April 2023
Orbit: 573 x 586 km, 98.0° (Epoch: 07 June)

Event Time Altitude Azimuth Distance (km) Brightness Sun altitude
Rises 09:51:20 0° 29° (NNE) 2,797 ? -38.6°
Reaches altitude 10° 09:53:58 10° 46° (NE) 1,890 ? -38.3°
Enters shadow 09:54:03 10° 47° (NE) 1,866 ? -38.3°
